Location: Unspecified
(0.0000°N, 0.0000°E)
Time: 20:19:04
(UTC+00:00)

BlueWalker 3 - Pass Details

Date: 27 March 2023
Orbit: 497 x 514 km, 53.2° (Epoch: 29 March)

Event Time Altitude Azimuth Distance (km) Brightness Sun altitude
Rises 05:08:48 0° 336° (NNW) 2,561 5.3 -14.2°
Reaches altitude 10° 05:11:02 10° 343° (NNW) 1,682 4.4 -13.6°
Maximum altitude 05:14:41 45° 56° (ENE) 680 3.0 -12.7°
Drops below altitude 10° 05:18:21 10° 130° (SE) 1,693 5.3 -11.8°
Sets 05:20:36 0° 136° (SE) 2,581 6.2 -11.2°
